CAPE
0 0 0 0 0 0 0 0 0 0 30 34 35 29 3 1 14 1 0 0 2 46 194 249 224 261 202 184 185 167 138 123 68 6 2 2 4 1 0 0 0 0 0 0 0 0 0 0 0
0 0 0 0 0 0 0 0 0 0 18 2 1 2 1 1 3 6 0 1 3 4 207 196 183 206 202 131 98 62 45 33 7 3 3 4 2 2 0 0 0 0 0 0 0 0 0 0 0
0 0 0 0 0 0 0 0 0 0 0 0 0 0 0 1 7 2 2 2 4 2 3 21 72 89 50 32 18 6 5 3 4 4 4 4 3 0 0 0 0 0 0 0 0 0 0 0 0
0 0 0 0 0 0 0 0 0 0 0 0 0 0 1 6 1 2 2 2 2 1 0 1 3 4 4 4 6 6 5 6 2 2 3 2 0 0 0 0 0 0 0 0 0 0 0 0 0
0 0 0 0 0 0 0 0 0 0 0 0 0 0 1 5 1 2 1 1 1 0 0 0 0 0 0 0 0 0 0 0 0 0 0 0 0 0 0 0 0 0 0 0 0 0 0 0 0
0 0 0 0 0 0 0 0 0 0 0 0 0 0 3 2 0 1 0 0 0 0 0 0 0 0 0 0 0 0 0 0 0 0 0 0 0 0 0 0 0 0 0 0 0 0 0 0 0
0 0 0 0 0 0 0 0 0 0 0 0 0 0 3 5 1 0 0 0 0 0 0 0 0 0 0 0 0 0 0 0 0 0 0 0 0 0 0 0 0 0 0 0 0 0 0 0 0
0 0 0 0 0 0 0 0 0 0 0 0 0 0 0 9 3 0 0 0 0 0 0 0 0 0 0 0 0 0 0 0 0 0 0 0 0 0 0 0 0 0 0 0 0 0 0 0 0
0 0 0 0 0 0 0 0 0 0 0 0 1 2 9 13 11 0 0 0 0 0 0 0 0 0 0 0 0 0 0 0 0 0 0 0 0 0 0 0 0 0 0 0 0 0 0 0 0
0 0 0 0 0 0 0 0 0 0 0 0 0 1 3 0 0 0 0 0 0 0 0 0 0 0 0 0 0 0 0 0 0 0 0 0 0 0 0 0 0 0 0 0 0 0 0 0 0
0 0 0 0 0 0 0 0 0 0 0 0 0 1 0 0 0 0 0 0 0 0 0 0 0 0 0 0 0 0 0 0 0 0 0 0 0 0 0 0 0 0 0 0 0 0 0 0 0
0 0 0 0 0 0 0 0 0 0 0 0 2 0 0 0 0 0 0 0 0 0 0 0 0 0 0 0 0 0 0 0 0 0 0 0 0 0 0 0 0 0 0 0 0 0 0 0 0
0 0 0 0 0 0 0 0 0 0 0 0 0 0 0 0 0 0 0 0 0 0 0 0 0 0 0 0 0 0 0 0 0 0 0 0 0 0 0 0 0 0 0 0 0 0 0 0 0
0 0 0 0 0 0 0 0 0 0 0 0 0 0 0 0 0 0 0 0 0 0 0 0 0 0 0 0 0 0 0 0 0 0 0 0 0 0 0 0 0 0 0 0 0 0 0 0 0
0 0 0 0 0 0 0 0 0 0 0 0 0 0 0 0 0 0 0 0 0 0 0 0 0 0 0 0 0 0 0 0 0 0 0 0 0 0 0 0 0 0 0 0 0 0 0 0 0
0 0 0 0 0 0 0 0 0 0 0 0 0 0 0 0 0 0 0 0 0 0 0 0 0 0 0 0 0 0 0 0 0 0 0 0 0 0 0 0 0 0 0 0 0 0 0 0 0
0 0 0 0 0 0 0 0 0 0 0 0 0 0 0 0 0 0 0 0 0 0 0 0 0 0 0 0 0 0 0 0 0 0 0 0 0 0 0 0 0 0 0 0 0 0 0 0 0
0 0 0 0 0 0 0 0 0 0 0 0 0 0 0 0 0 0 0 0 0 0 0 0 0 0 0 0 0 0 0 0 0 0 0 0 0 0 0 0 0 0 0 0 0 0 0 0 0
0 0 0 0 0 0 0 0 0 0 0 0 0 0 0 0 0 0 0 0 0 0 0 0 0 0 0 0 0 0 0 0 0 0 0 0 0 0 0 0 0 0 0 0 0 0 0 0 1
0 0 0 0 0 0 0 0 0 0 0 0 0 0 0 0 0 0 0 0 0 0 0 0 0 0 0 0 0 0 0 0 0 0 0 0 0 0 0 0 0 0 0 0 0 0 0 0 2
0 0 0 0 0 0 0 0 0 0 0 0 0 0 0 0 0 0 0 0 0 0 0 0 0 0 0 0 0 0 0 0 0 0 0 0 0 0 0 0 0 0 0 0 0 0 0 0 0
0 0 0 0 0 0 0 0 0 0 0 0 0 0 0 0 0 0 0 0 0 0 0 0 0 0 0 0 0 0 0 0 0 0 0 0 0 0 0 0 0 0 0 0 0 0 0 0 0
0 0 0 0 0 0 0 0 0 0 0 0 0 0 0 0 0 0 0 0 0 0 0 0 0 0 0 0 0 0 0 0 0 0 0 0 0 0 0 0 0 0 0 0 0 0 0 0 0
0 0 0 0 0 0 0 0 0 0 0 0 0 0 0 0 0 0 0 0 0 0 0 0 0 0 0 0 0 0 0 0 0 0 0 0 0 0 0 0 0 0 0 0 0 0 0 0 0
0 0 0 0 0 0 0 0 0 0 0 0 0 0 0 0 0 0 0 0 0 0 0 0 0 0 0 0 0 0 0 0 0 0 0 0 0 0 0 0 0 0 0 0 1 2 1 1 0
0 0 0 0 0 0 0 0 0 0 0 0 0 0 0 0 0 0 0 0 0 0 0 0 0 0 0 0 0 0 0 0 0 0 0 0 0 0 0 0 0 0 0 0 2 2 4 2 1
0 0 0 0 0 0 0 0 0 0 0 0 0 0 0 0 0 0 0 0 0 0 0 0 0 0 0 0 0 0 0 0 0 0 0 0 0 0 0 0 0 0 0 0 0 1 0 1 1
0 0 0 0 0 0 0 0 0 0 0 0 0 0 0 0 0 0 0 0 0 0 0 0 0 0 0 0 0 0 0 0 0 0 0 0 0 0 0 0 0 0 0 0 0 0 2 1 0
0 0 0 0 0 0 0 0 0 0 0 0 0 0 0 0 0 0 0 0 0 0 0 0 0 0 0 0 0 0 0 0 0 0 0 0 1 0 0 0 0 0 0 0 1 1 1 1 1
0 0 0 0 0 0 0 0 0 0 0 0 0 0 0 0 0 0 0 0 0 0 0 0 0 0 0 0 0 0 0 0 0 0 1 2 4 2 2 0 0 0 0 0 0 1 1 0 0
CIN
0 0 0 0 0 0 0 0 0 -38 -35 -121 -136 -117 -73 -1 -152 -45 -2 0 0 -49 -7 -12 -15 -13 -8 -6 -4 -1 -4 -1 -25 -12 -1 -18 0 0 0 0 0 0 0 0 0 0 0 0 0
0 0 0 0 0 0 0 0 0 -14 -66 -86 -182 -178 -73 -56 0 -22 -10 0 0 0 -2 -3 -5 -7 -1 -3 -4 -6 -16 -35 -81 0 0 0 0 0 0 0 0 0 0 0 0 0 0 0 0
0 0 0 0 0 0 0 0 0 0 0 0 0 0 0 0 -1 0 0 0 0 0 0 -91 -7 -2 -16 -25 -23 -30 -11 -21 0 0 0 0 0 0 0 0 0 0 0 0 0 0 0 0 0
0 0 0 0 0 0 0 0 0 0 0 0 0 0 -2 -2 0 0 0 0 0 0 0 0 0 -1 -1 0 0 0 0 0 0 0 0 0 0 0 0 0 0 0 0 0 0 0 0 0 0
0 0 0 0 0 0 0 0 0 0 0 0 0 0 0 -1 0 0 0 0 0 0 0 0 0 0 0 0 0 0 0 0 0 0 0 0 0 0 0 0 0 0 0 0 0 0 0 0 0
0 0 0 0 0 0 0 0 0 0 0 0 0 0 -1 -10 0 0 0 0 0 0 0 0 0 0 0 0 0 0 0 0 0 0 0 0 0 0 0 0 0 0 0 0 0 0 0 0 0
0 0 0 0 0 0 0 0 0 0 0 0 0 0 -1 -8 0 0 0 0 0 0 0 0 0 0 0 0 0 0 0 0 0 0 0 0 0 0 0 0 0 0 0 0 0 0 0 0 0
0 0 0 0 0 0 0 0 0 0 0 0 0 0 0 -1 -12 -25 0 0 0 0 0 0 0 0 0 0 0 0 0 0 0 0 0 0 0 0 0 0 0 0 0 0 0 0 0 0 0
0 0 0 0 0 0 0 0 0 0 0 0 0 -1 0 -2 -3 0 0 0 0 0 0 0 0 0 0 0 0 0 0 0 0 0 0 0 0 0 0 0 0 0 0 0 0 0 0 0 0
0 0 0 0 0 0 0 0 0 0 0 0 0 -1 -5 0 0 0 0 0 0 0 0 0 0 0 0 0 0 0 0 0 0 0 0 0 0 0 0 0 0 0 0 0 0 0 0 0 0
0 0 0 0 0 0 0 0 0 0 0 0 0 0 0 0 0 0 0 0 0 0 0 0 0 0 0 0 0 0 0 0 0 0 0 0 0 0 0 0 0 0 0 0 0 0 0 0 0
0 0 0 0 0 0 0 0 0 0 0 0 -1 0 0 0 0 0 0 0 0 0 0 0 0 0 0 0 0 0 0 0 0 0 0 0 0 0 0 0 0 0 0 0 0 0 0 0 0
0 0 0 0 0 0 0 0 0 0 0 0 0 0 0 0 0 0 0 0 0 0 0 0 0 0 0 0 0 0 0 0 0 0 0 0 0 0 0 0 0 0 0 0 0 0 0 0 0
0 0 0 0 0 0 0 0 0 0 0 0 0 0 0 0 0 0 0 0 0 0 0 0 0 0 0 0 0 0 0 0 0 0 0 0 0 0 0 0 0 0 0 0 0 0 0 0 0
0 0 0 0 0 0 0 0 0 0 0 0 0 0 0 0 0 0 0 0 0 0 0 0 0 0 0 0 0 0 0 0 0 0 0 0 0 0 0 0 0 0 0 0 0 0 0 0 0
0 0 0 0 0 0 0 0 0 0 0 0 0 0 0 0 0 0 0 0 0 0 0 0 0 0 0 0 0 0 0 0 0 0 0 0 0 0 0 0 0 0 0 0 0 0 0 0 0
0 0 0 0 0 0 0 0 0 0 0 0 0 0 0 0 0 0 0 0 0 0 0 0 0 0 0 0 0 0 0 0 0 0 0 0 0 0 0 0 0 0 0 0 0 0 0 0 0
0 0 0 0 0 0 0 0 0 0 0 0 0 0 0 0 0 0 0 0 0 0 0 0 0 0 0 0 0 0 0 0 0 0 0 0 0 0 0 0 0 0 0 0 0 0 0 0 0
0 0 0 0 0 0 0 0 0 0 0 0 0 0 0 0 0 0 0 0 0 0 0 0 0 0 0 0 0 0 0 0 0 0 0 0 0 0 0 0 0 0 0 0 0 0 0 0 0
0 0 0 0 0 0 0 0 0 0 0 0 0 0 0 0 0 0 0 0 0 0 0 0 0 0 0 0 0 0 0 0 0 0 0 0 0 0 0 0 0 0 0 0 0 0 0 0 0
0 0 0 0 0 0 0 0 0 0 0 0 0 0 0 0 0 0 0 0 0 0 0 0 0 0 0 0 0 0 0 0 0 0 0 0 0 0 0 0 0 0 0 0 0 0 0 0 0
0 0 0 0 0 0 0 0 0 0 0 0 0 0 0 0 0 0 0 0 0 0 0 0 0 0 0 0 0 0 0 0 0 0 0 0 0 0 0 0 0 0 0 0 0 0 0 0 0
0 0 0 0 0 0 0 0 0 0 0 0 0 0 0 0 0 0 0 0 0 0 0 0 0 0 0 0 0 0 0 0 0 0 0 0 0 0 0 0 0 0 0 0 0 0 0 0 0
0 0 0 0 0 0 0 0 0 0 0 0 0 0 0 0 0 0 0 0 0 0 0 0 0 0 0 0 0 0 0 0 0 0 0 0 0 0 0 0 0 0 0 0 0 0 0 0 -1
0 0 0 0 0 0 0 0 0 0 0 0 0 0 0 0 0 0 0 0 0 0 0 0 0 0 0 0 0 0 0 0 0 0 0 0 0 0 0 0 0 0 0 0 0 0 0 0 0
0 0 0 0 0 0 0 0 0 0 0 0 0 0 0 0 0 0 0 0 0 0 0 0 0 0 0 0 0 0 0 0 0 0 0 0 0 0 0 0 0 0 0 0 0 0 0 0 0
0 0 0 0 0 0 0 0 0 0 0 0 0 0 0 0 0 0 0 0 0 0 0 0 0 0 0 0 0 0 0 0 0 0 0 0 0 0 0 0 0 0 0 0 0 0 0 0 0
0 0 0 0 0 0 0 0 0 0 0 0 0 0 0 0 0 0 0 0 0 0 0 0 0 0 0 0 0 0 0 0 0 0 0 0 0 0 0 0 0 0 0 0 0 0 0 0 0
0 0 0 0 0 0 0 0 0 0 0 0 0 0 0 0 0 0 0 0 0 0 0 0 0 0 0 0 0 0 0 0 0 0 0 -1 -1 -1 -1 0 0 0 0 0 0 0 0 0 0
0 0 0 0 0 0 0 0 0 0 0 0 0 0 0 0 0 0 0 0 0 0 0 0 0 0 0 0 0 0 0 0 0 0 0 0 0 0 -1 -1 0 0 0 0 0 -1 0 0 0
Wind_Speed
19 18 15 12 11 12 12 13 13 13 14 16 15 14 14 17 18 17 20 23 23 23 23 22 22 21 21 20 19 20 21 21 23 24 25 25 26 26 25 26 26 26 26 26 25 25 25 25 25
17 15 12 11 11 10 12 13 14 14 13 15 16 14 16 16 17 16 19 23 22 22 24 24 23 23 22 22 22 23 22 23 23 24 25 26 26 26 26 26 27 27 27 26 26 27 27 27 27
14 12 11 11 11 9 10 12 13 13 15 15 15 16 16 16 17 17 22 20 20 21 22 24 24 24 24 24 24 24 24 24 25 25 25 26 26 26 27 27 27 27 27 27 26 26 27 27 28
13 12 11 10 10 11 11 12 13 13 16 17 16 16 15 17 16 19 20 20 21 22 23 24 24 25 24 24 25 25 25 25 26 26 26 26 26 27 28 28 28 29 28 28 28 28 28 28 28
12 10 10 9 10 10 12 13 15 15 16 18 15 15 15 17 17 18 20 20 21 22 23 24 25 25 26 25 26 26 26 27 27 27 27 28 28 29 29 30 30 30 30 30 30 30 30 31 31
10 10 8 8 9 11 14 16 15 16 17 17 17 15 15 17 18 19 19 20 21 23 24 25 25 27 27 27 27 27 28 28 28 28 29 30 30 30 30 30 30 31 31 31 31 31 32 32 32
8 10 9 8 9 12 15 16 16 16 17 19 17 16 14 17 18 18 19 21 22 23 24 26 26 27 28 28 29 29 29 29 28 29 29 30 30 30 30 31 31 32 32 32 32 32 32 33 33
8 10 8 10 10 13 16 14 14 17 17 16 17 16 15 14 16 18 20 21 23 24 25 27 27 28 28 29 29 30 30 30 30 30 30 30 30 30 31 31 31 31 32 32 32 32 33 33 33
10 10 9 11 12 12 15 13 16 16 17 18 17 16 15 15 18 19 20 23 24 26 27 28 30 31 31 30 30 30 30 30 30 30 31 31 31 31 31 32 32 32 32 32 32 32 33 33 33
11 10 11 12 12 13 15 14 15 15 16 17 17 17 17 19 19 20 23 24 26 28 29 30 30 31 31 30 31 30 30 30 31 31 31 31 31 32 32 33 33 33 34 34 34 34 34 34 33
12 10 11 13 13 13 14 16 16 13 18 20 17 16 16 18 20 21 23 25 25 27 28 30 31 31 32 32 31 30 29 29 30 31 32 32 33 33 34 34 34 35 35 35 35 35 34 35 35
10 12 11 13 16 13 14 15 17 18 17 15 15 15 16 19 21 22 23 24 26 27 29 30 31 31 31 30 30 30 30 30 30 31 33 34 34 35 35 35 36 36 35 37 36 36 37 37 37
12 11 13 15 16 16 16 15 14 18 18 14 14 17 18 18 20 21 22 24 25 28 29 31 31 31 31 30 30 30 31 31 31 32 34 34 35 36 36 36 36 37 36 37 38 38 38 39 39
14 14 13 16 18 18 15 15 15 18 17 14 14 16 17 19 19 20 23 25 26 27 29 29 30 30 30 30 31 31 30 31 31 32 34 35 35 37 37 38 38 39 39 39 40 40 41 41 40
13 15 16 20 20 18 16 16 16 19 11 11 12 13 15 18 20 22 23 24 25 26 27 29 29 30 30 30 30 30 31 32 32 34 35 37 37 39 40 40 40 41 42 42 42 43 42 43 43
15 16 16 18 21 16 17 18 10 13 6 5 7 12 15 18 20 21 23 23 25 26 28 28 29 31 31 32 31 31 33 32 34 35 37 39 39 42 42 42 42 43 43 43 43 44 45 45 45
19 16 17 18 17 10 9 4 6 8 4 4 7 9 13 16 19 20 21 23 24 26 28 29 30 32 33 33 33 33 34 34 36 37 39 41 42 44 44 44 45 46 45 45 45 46 46 48 48
17 18 13 8 9 8 8 11 3 8 5 5 7 10 12 15 17 19 21 23 25 27 28 29 30 33 34 33 34 34 36 36 37 38 40 41 42 44 45 45 47 47 46 47 47 48 47 47 48
15 13 9 7 7 7 3 11 9 3 6 5 7 9 11 13 15 18 20 22 25 27 29 31 33 34 36 37 39 38 41 39 40 39 41 41 43 44 44 44 45 45 45 46 47 48 50 50 48
12 10 6 5 7 3 3 17 13 4 3 3 6 8 10 13 15 17 20 23 25 27 29 31 33 35 36 37 38 37 41 38 41 41 42 42 45 45 45 46 46 46 46 47 47 47 50 48 46
10 8 3 2 4 5 5 8 10 10 8 9 9 10 12 15 17 19 21 23 25 28 30 32 34 36 37 39 40 41 41 42 42 46 45 46 47 47 46 46 46 46 46 47 47 46 48 53 48
7 9 2 2 7 10 19 8 18 16 13 11 10 12 14 16 18 20 22 24 27 29 31 33 35 38 39 40 43 45 46 50 47 47 47 48 48 47 48 47 46 47 46 47 47 46 48 49 54
8 4 8 12 12 12 15 13 16 21 18 17 13 12 13 15 17 19 22 24 26 29 32 34 36 38 40 42 43 45 47 47 48 48 50 49 48 47 47 47 47 48 47 47 49 50 49 48 51
11 13 16 15 15 15 16 21 20 19 21 24 23 14 13 15 17 20 22 25 28 30 33 37 39 40 42 44 44 46 49 51 53 53 53 51 49 49 48 48 48 48 49 50 51 51 51 50 50
19 19 15 14 16 17 19 21 13 19 21 22 24 22 15 17 19 23 26 27 29 32 37 40 42 44 44 45 46 47 49 51 52 53 52 54 53 52 51 51 50 50 50 50 50 50 50 49 49
21 22 21 14 17 17 24 17 24 23 23 23 22 23 21 20 22 27 28 29 32 36 38 41 44 46 46 46 48 48 48 50 50 50 52 52 53 52 51 51 51 50 49 49 47 47 47 46 47
21 23 20 19 20 21 19 21 25 26 22 23 22 26 24 23 28 29 30 32 36 37 40 43 45 47 47 49 49 50 49 49 51 52 51 51 51 51 51 51 51 49 48 47 46 45 45 44 44
20 19 24 25 24 26 23 25 27 27 30 28 26 27 28 29 30 31 32 36 37 37 41 43 45 47 47 48 49 50 50 50 51 52 52 52 52 52 51 51 50 49 47 46 44 44 43 43 42
20 22 24 23 22 25 31 28 25 30 30 30 30 31 36 34 33 34 36 38 37 39 42 44 46 47 49 49 50 51 52 52 52 53 53 53 52 51 50 49 49 48 47 45 44 43 42 42 42
18 22 22 24 26 24 28 35 29 28 29 31 33 39 39 36 34 36 39 39 40 43 44 46 47 48 48 49 51 52 52 53 54 54 54 53 52 50 49 48 48 47 46 45 44 44 42 42 42
Wind_Direction
280 275 280 294 322 334 340 347 351 352 344 339 332 334 348 338 329 324 317 321 320 332 351 349 1 6 9 11 8 7 1 8 1 351 347 348 347 342 348 343 339 338 332 331 325 323 323 325 325
280 286 306 314 334 336 334 338 8 7 19 48 0 357 348 349 345 347 336 321 341 352 10 6 9 10 5 4 3 1 0 0 357 357 356 350 348 347 352 348 344 343 338 348 343 337 329 325 324
272 273 300 309 334 347 3 354 9 14 25 32 37 19 23 16 1 357 334 339 350 357 359 5 5 6 3 360 357 356 352 351 349 347 348 348 348 348 347 347 348 348 347 346 344 342 339 332 326
257 268 318 341 4 350 349 336 355 31 14 8 28 14 4 350 346 336 348 359 1 357 358 358 356 354 356 356 357 357 354 350 349 347 346 346 343 342 342 341 340 339 339 337 334 334 331 331 329
262 303 326 346 343 355 357 358 356 7 18 1 21 25 19 359 355 351 354 355 356 359 357 358 358 355 354 355 352 350 347 347 346 344 342 340 339 338 338 336 335 334 333 331 330 327 324 322 320
296 314 330 341 346 339 357 346 8 6 4 6 8 10 11 357 355 356 359 0 360 1 0 359 356 354 352 351 350 347 345 343 341 340 338 336 334 333 334 333 333 331 330 328 326 324 322 320 319
320 323 328 350 356 350 341 349 3 6 3 354 1 1 11 2 5 3 2 1 360 358 355 352 352 351 347 345 343 342 342 342 342 341 339 336 335 334 333 332 330 328 327 326 324 323 322 320 318
323 337 334 337 346 345 350 10 14 1 1 8 4 359 3 16 11 3 359 356 355 354 352 350 347 346 346 344 342 341 340 340 339 338 338 338 337 336 334 332 331 329 328 326 325 323 321 320 319
305 333 333 335 347 1 2 17 7 11 13 6 8 11 13 13 359 355 353 348 347 345 345 344 342 341 339 341 340 340 340 340 340 339 337 336 337 336 335 333 332 330 329 327 325 324 322 321 319
331 339 337 357 11 8 10 14 8 5 3 1 2 8 4 359 358 353 348 344 343 341 342 343 343 342 343 344 341 341 341 342 341 340 339 339 337 335 333 332 330 329 327 325 323 321 320 319 318
335 354 25 8 11 22 17 0 355 9 350 346 351 2 7 359 353 351 349 347 346 345 345 344 343 343 343 343 343 343 342 342 341 340 339 337 336 334 332 330 329 327 326 324 323 321 320 318 316
16 2 15 0 349 8 1 2 354 352 351 6 12 11 5 358 352 350 349 347 344 343 342 342 344 345 345 347 347 347 346 345 344 342 340 338 336 333 331 329 327 326 325 322 321 319 317 316 314
19 13 360 2 354 1 1 357 4 354 356 10 11 2 359 359 357 354 354 352 348 344 343 342 344 345 347 349 350 350 349 347 346 344 342 341 338 335 334 331 329 327 326 323 321 319 317 315 313
38 32 10 350 349 355 0 359 357 352 351 360 1 358 358 357 356 355 350 346 347 348 348 349 350 351 353 353 353 352 353 351 351 349 347 344 341 337 334 331 329 327 325 322 319 316 315 313 312
19 14 0 347 348 0 359 346 345 347 1 6 7 10 9 358 353 349 350 352 352 354 355 353 354 354 354 354 355 355 354 352 349 347 345 343 340 337 334 331 328 326 323 321 318 316 313 310 310
15 10 5 356 352 0 358 345 7 12 86 96 41 10 3 357 357 356 355 355 355 355 353 354 354 352 352 352 352 352 350 348 347 345 343 340 338 335 332 329 327 326 324 322 320 317 314 311 309
1 11 5 1 11 31 67 81 112 53 92 39 18 11 2 357 354 354 354 354 354 352 351 350 350 349 348 348 348 348 347 347 345 342 340 337 334 332 329 327 325 324 322 321 319 316 314 310 308
19 25 68 109 167 205 205 229 183 25 27 8 359 355 351 348 348 352 353 353 352 351 351 349 348 347 346 346 345 345 344 344 344 343 341 339 336 333 330 328 325 324 322 320 318 315 314 311 308
139 125 139 154 141 226 172 244 245 351 355 340 345 342 342 345 351 352 351 350 349 349 348 347 346 345 345 343 340 339 338 339 339 339 338 336 335 333 331 330 328 327 324 321 319 316 313 310 310
147 135 145 196 91 52 276 269 264 260 285 318 321 331 338 343 343 345 346 346 346 345 345 344 343 343 343 342 341 340 337 337 336 336 336 335 333 332 330 328 326 325 323 321 320 318 314 311 310
136 134 145 177 266 49 328 356 28 20 3 348 341 342 341 338 337 338 339 340 342 341 341 341 341 341 341 340 339 338 337 335 334 334 333 333 331 330 328 327 326 324 323 321 320 319 316 310 309
134 92 95 31 30 29 25 6 7 12 0 351 342 334 334 335 335 336 335 336 338 338 339 339 339 338 338 339 337 336 334 331 332 332 331 330 330 329 328 327 325 324 322 320 319 318 315 313 307
103 81 54 38 35 24 26 19 15 4 6 357 340 333 329 331 333 332 333 334 337 338 338 338 338 338 338 337 337 335 333 332 331 330 329 329 329 328 328 326 325 323 322 320 317 316 313 311 308
60 46 31 36 35 28 25 10 359 7 3 0 357 342 333 333 335 334 334 334 334 336 337 337 337 337 337 336 335 333 331 330 329 328 328 328 328 328 327 326 324 323 321 320 318 316 313 311 308
35 32 28 33 22 16 18 4 1 1 355 357 356 354 342 337 335 332 332 332 333 334 335 335 335 334 335 335 334 333 332 330 329 328 328 327 327 327 326 325 323 322 321 320 319 317 315 313 310
31 27 26 10 3 338 358 14 9 1 357 357 358 354 347 337 332 330 331 330 330 331 334 334 334 333 334 334 333 333 332 330 329 329 328 327 326 325 325 324 323 322 322 321 320 318 316 314 312
21 18 20 13 7 358 4 2 345 358 1 355 354 352 346 337 332 331 331 331 330 330 331 333 333 333 334 334 333 332 332 330 329 328 327 326 325 325 325 324 324 323 322 321 319 318 317 316 313
19 23 7 5 359 349 351 347 350 352 350 349 347 347 344 336 333 332 333 332 333 333 334 334 334 334 334 334 333 333 332 330 329 328 326 326 325 325 324 324 324 324 323 322 320 318 317 316 314
11 6 2 359 355 347 344 343 349 343 344 345 344 344 340 337 334 334 334 335 335 335 335 335 335 335 335 334 333 332 331 330 329 327 326 325 324 324 324 324 324 324 323 322 320 318 317 316 314
7 358 355 350 345 338 333 318 344 344 344 342 340 338 339 339 338 336 336 336 336 335 336 336 336 335 335 334 333 332 332 331 330 328 327 327 324 324 323 323 322 323 322 321 319 316 315 314 313